GW2039 Weather Reports


Display with metric or nautical units.
time (UTC)temp
F
wind
direction
speed
MPH
gust
MPH
rain 1hr
in
rain 24hr
in
rain mn
in
humidity
%
barometer
mb
20260831192003 84 349 0.0 2.0 0.00 1.14 0.00 88 1003.9
20260831191859 84 349 0.0 2.0 0.00 1.14 0.00 88 1003.9
20260831191805 84 349 0.0 2.0 0.00 1.14 0.00 88 1003.9
20260831191659 84 349 0.0 2.0 0.00 1.14 0.00 88 1003.9
20260831191559 84 349 0.0 2.0 0.00 1.14 0.00 88 1004.0
20260831191505 84 349 1.0 2.0 0.00 1.14 0.00 87 1004.0
20260831191359 84 349 0.0 2.0 0.00 1.14 0.00 87 1003.9
20260831191304 84 349 0.0 2.0 0.00 1.14 0.00 87 1003.9
20260831191158 84 349 1.0 2.0 0.00 1.14 0.00 87 1004.0
20260831191106 84 349 1.0 2.0 0.00 1.14 0.00 87 1004.0
20260831191004 84 349 0.0 2.0 0.00 1.14 0.00 87 1003.9
20260831190900 84 349 1.0 2.0 0.00 1.14 0.00 87 1003.9
20260831190659 84 24 1.0 2.0 0.00 1.14 0.00 87 1003.9
20260831190606 84 24 2.0 2.0 0.00 1.14 0.00 87 1003.9
20260831190404 84 35 0.0 2.0 0.00 1.14 0.00 87 1004.0
20260831190307 84 48 0.0 0.0 0.00 1.14 0.00 87 1003.9
20260831190203 84 47 0.0 0.0 0.00 1.14 0.00 87 1004.0
20260831190106 0 0.0 0.0 0.00 1.14 0.00 1004.0
20260831190011 0 0.0 0.0 0.00 1.14 0.00 1004.0
20260831185904 0 0.0 0.0 0.00 1.14 0.00 1004.0
20260831185659 84 177 0.0 0.0 0.00 1.14 1.14 87 1003.9
20260831185621 84 177 0.0 0.0 0.00 1.14 1.14 87 1003.9
20260831103103 86 275 3.0 5.0 0.00 1.14 1.14 85 1001.7
20260831103003 86 300 3.0 5.0 0.00 1.14 1.14 85 1001.8
20260831102900 86 291 3.0 5.0 0.00 1.14 1.14 85 1001.7
20260831102805 86 325 3.0 5.0 0.00 1.14 1.14 85 1001.8
20260831102701 86 291 3.0 5.0 0.00 1.14 1.14 85 1001.8
20260831102604 86 311 3.0 5.0 0.00 1.14 1.14 85 1001.8
20260831102502 86 303 3.0 5.0 0.00 1.14 1.14 86 1001.9
20260831102307 85 268 1.0 3.0 0.00 1.14 1.14 87 1002.0
20260831102203 85 335 1.0 3.0 0.00 1.14 1.14 87 1001.9
20260831102059 85 276 1.0 3.0 0.00 1.14 1.14 86 1001.9
20260831102009 85 276 2.0 3.0 0.00 1.14 1.14 87 1001.9
20260831101904 85 276 2.0 3.0 0.00 1.14 1.14 87 1001.9
20260831101759 85 296 1.0 3.0 0.00 1.14 1.14 87 1001.9
20260831101701 85 296 1.0 3.0 0.00 1.14 1.14 87 1001.9
20260831101603 85 296 1.0 3.0 0.00 1.14 1.14 87 1001.9